Location: *
(42.3442°N, 9.2072°E)
Time: 00:53:02
(UTC+00:00)

Cosmos 921 Rocket - Pass Details

Date: 09 April 2020
Orbit: 572 x 632 km, 75.8° (Epoch: 02 June)

Event Time Altitude Azimuth Distance (km) Brightness Sun altitude
Rises 19:00:46 0° 348° (NNW) 2,787 6.9 -11.8°
Reaches altitude 10° 19:03:03 10° 355° (N) 1,886 5.9 -12.2°
Maximum altitude 19:07:05 46° 69° (ENE) 778 3.3 -12.9°
Enters shadow 19:09:46 19° 135° (SE) 1,384 4.3 -13.4°
